Location: Unnamed
(48.2382°N, 16.3826°E)
Time: 11:03:45
(UTC+02:00)

Falcon 9 debris - Pass Details

Date: 15 August 2020
Orbit: 426 x 434 km, 53.0° (Epoch: 23 September)

Event Time Altitude Azimuth Distance (km) Brightness Sun altitude
Rises 00:03:27 0° 295° (WNW) 2,415 ? -26.6°
Reaches altitude 10° 00:05:35 10° 299° (WNW) 1,545 ? -26.6°
Enters shadow 00:06:49 20° 304° (NW) 1,064 ? -26.7°
